Flag for U.S.A. Weather past 2 weeks in Kailua-Kona, Hawaii, U.S.A.

Now
74 °F

Clear.


Feels Like: 74 °F
Forecast: 69 / 81 °F
Wind: 5 mph from Northeast

Location: Keahole Airport

Current Time: Oct 24, 2014 at 5:47:25 AM

Latest Report: Oct 24, 2014 at 4:53 AM


Visibility: 10 mi

Pressure: 29.95 "Hg

Humidity: 79%

Dew point: 67 °F

Location of Kailua-KonaLocation

Historic Weather in Kailua-Kona — Graph

°F

Kailua-Kona temperature yesterday

Maximum temperature yesterday: 87 °F (at 12:53 PM)
Minimum temperature yesterday: 77 °F (at 2:53 AM)
Average temperature yesterday: 82 °F

Past Weeks' High & Low Weather Summary

 TemperatureHumidityPressure
High88 °F (Oct 15, 12:53 PM)94% (Oct 18, 5:46 AM)30.03 "Hg (Oct 18, 5:46 AM)
Low72 °F (Oct 14, 3:53 AM)49% (Oct 14, 7:53 AM)29.80 "Hg (Oct 17, 2:53 PM)
Average81 °F69%29.93 "Hg
* Reported Oct 9 4:53 AM — Oct 24 4:53 AM, Kailua-Kona, Weather by CustomWeather, © 2014

Note: Actual official high and low records may vary slightly from our data, if they occured in-between our weather recording intervals... More about our weather records

Advertising

Kailua-Kona weather history for previous 24 hours

 ConditionsComfort  
Time TempWeatherWind HumidityBarometerVisibility
4:53 AM
Oct 24
74 °FClear.5 mph79%29.95 "Hg10 mi
3:53 AM75 °FClear.No wind76%29.94 "Hg10 mi
2:53 AM76 °FClear.No wind74%29.95 "Hg10 mi
1:53 AM78 °FClear.6 mph69%29.97 "Hg10 mi
12:53 AM78 °FPassing clouds.10 mph64%29.98 "Hg10 mi
11:53 PM
Oct 23
79 °FClear.14 mph62%30.00 "Hg10 mi
10:53 PM78 °FClear.9 mph64%30.00 "Hg10 mi
9:53 PM80 °FPassing clouds.9 mph64%30.02 "Hg10 mi
8:53 PM81 °FClear.3 mph72%30.02 "Hg10 mi
7:53 PM81 °FPassing clouds.6 mph72%30.01 "Hg10 mi
7:32 PM82 °FPassing clouds.8 mph70%30.00 "Hg10 mi
6:53 PM82 °FPassing clouds.7 mph72%29.99 "Hg10 mi
5:53 PM83 °FSunny.9 mph68%29.97 "Hg10 mi
4:53 PM86 °FPartly sunny.10 mph61%29.95 "Hg10 mi
3:53 PM86 °FSunny.9 mph59%29.94 "Hg10 mi
2:53 PM86 °FSunny.8 mph59%29.94 "Hg10 mi
1:53 PM87 °FPassing clouds.8 mph53%29.94 "Hg10 mi
12:53 PM87 °FSunny.7 mph57%29.97 "Hg10 mi
11:53 AM85 °FPassing clouds.7 mph59%29.99 "Hg10 mi
10:53 AM86 °FScattered clouds.8 mph57%30.00 "Hg10 mi
9:53 AM85 °FSunny.6 mph61%30.01 "Hg10 mi
8:53 AM82 °FSunny.5 mph70%30.01 "Hg10 mi
7:53 AM80 °FScattered clouds.No wind74%30.00 "Hg10 mi
6:53 AM77 °FScattered clouds.3 mph79%29.98 "Hg10 mi
5:57 AM79 °FPartly cloudy.No wind74%29.97 "Hg10 mi
Weather by CustomWeather, © 2014

See weather overviewHow to use our weather pages